START_TIME,STEP,MOV.,P11,t_acc.,P23,t_acc.,P27,t_acc.,A4,t_acc.
1979-07-02 21:00:23.960 ,0,0,0.,4.8,0.,4.8,0.,4.8,0.,4.8
1979-07-02 21:00:28.760 ,0,0,0.,4.8,0.,4.8,0.,4.8,0.,4.8
1979-07-02 21:00:33.560 ,0,0,2.,4.8,0.,4.8,0.,4.8,0.,4.8
1979-07-02 21:00:38.360 ,0,0,0.,4.8,0.,4.8,1.,4.8,0.,4.8
1979-07-02 21:00:43.160 ,0,0,0.,4.8,0.,4.8,1.,4.8,0.,4.8
1979-07-02 21:00:47.960 ,0,0,1.,4.8,0.,4.8,0.,4.8,0.,4.8
1979-07-02 21:00:52.760 ,0,0,0.,4.8,0.,4.8,0.,4.8,0.,4.8
1979-07-02 21:00:57.560 ,0,0,0.,4.8,0.,4.8,1.,4.8,0.,4.8
1979-07-02 21:01:02.360 ,0,0,2.,4.8,0.,4.8,0.,4.8,0.,4.8
1979-07-02 21:01:07.160 ,0,0,0.,4.8,0.,4.8,0.,4.8,0.,4.8
1979-07-02 21:01:11.960 ,0,0,0.,4.8,1.,4.8,0.,4.8,0.,4.8
1979-07-02 21:01:16.760 ,0,0,1.,4.8,0.,4.8,0.,4.8,0.,4.8
1979-07-02 21:01:21.560 ,0,0,1.,4.8,0.,4.8,0.,4.8,0.,4.8
1979-07-02 21:01:26.360 ,0,0,0.,4.8,0.,4.8,0.,4.8,0.,4.8
1979-07-02 21:01:31.160 ,0,0,0.,4.8,0.,4.8,0.,4.8,0.,4.8
1979-07-02 21:01:35.960 ,1,0,0.,4.8,0.,4.8,0.,4.8,0.,4.8
1979-07-02 21:01:40.760 ,1,0,0.,4.8,0.,4.8,0.,4.8,0.,4.8
1979-07-02 21:01:45.560 ,1,0,0.,4.8,0.,4.8,1.,4.8,0.,4.8
1979-07-02 21:01:50.360 ,1,0,1.,4.8,0.,4.8,0.,4.8,0.,4.8
1979-07-02 21:01:55.160 ,1,0,0.,4.8,0.,4.8,0.,4.8,0.,4.8
1979-07-02 21:01:59.960 ,1,0,0.,4.8,0.,4.8,0.,4.8,0.,4.8
1979-07-02 21:02:04.760 ,1,0,0.,4.8,0.,4.8,0.,4.8,0.,4.8
1979-07-02 21:02:09.560 ,1,0,0.,4.8,0.,4.8,0.,4.8,0.,4.8
1979-07-02 21:02:14.360 ,1,0,2.,4.8,0.,4.8,0.,4.8,0.,4.8
1979-07-02 21:02:19.160 ,1,0,0.,4.8,0.,4.8,0.,4.8,0.,4.8
1979-07-02 21:02:23.960 ,2,0,0.,4.8,0.,4.8,0.,4.8,0.,4.8
1979-07-02 21:02:28.760 ,2,0,0.,4.8,0.,4.8,0.,4.8,0.,4.8
1979-07-02 21:02:33.560 ,2,0,0.,4.8,0.,4.8,0.,4.8,0.,4.8
1979-07-02 21:02:38.360 ,2,0,0.,4.8,0.,4.8,0.,4.8,1.,4.8
1979-07-02 21:02:43.160 ,2,0,0.,4.8,0.,4.8,0.,4.8,0.,4.8
1979-07-02 21:02:47.960 ,2,0,0.,4.8,0.,4.8,0.,4.8,0.,4.8
1979-07-02 21:02:52.760 ,2,0,1.,4.8,0.,4.8,0.,4.8,0.,4.8
1979-07-02 21:02:57.560 ,2,0,0.,4.8,0.,4.8,0.,4.8,0.,4.8
1979-07-02 21:03:02.360 ,2,0,0.,4.8,0.,4.8,0.,4.8,0.,4.8
1979-07-02 21:03:07.160 ,2,0,2.,4.8,0.,4.8,0.,4.8,1.,4.8
1979-07-02 21:03:11.960 ,3,0,0.,4.8,0.,4.8,0.,4.8,0.,4.8
1979-07-02 21:03:16.760 ,3,0,0.,4.8,0.,4.8,0.,4.8,0.,4.8
1979-07-02 21:03:21.560 ,3,0,1.,4.8,0.,4.8,0.,4.8,0.,4.8
1979-07-02 21:03:26.360 ,3,0,1.,4.8,0.,4.8,1.,4.8,0.,4.8
1979-07-02 21:03:31.160 ,3,0,0.,4.8,0.,4.8,0.,4.8,0.,4.8
1979-07-02 21:03:35.960 ,3,0,0.,4.8,0.,4.8,0.,4.8,0.,4.8
1979-07-02 21:03:40.760 ,3,0,0.,4.8,0.,4.8,0.,4.8,0.,4.8
1979-07-02 21:03:45.560 ,3,0,1.,4.8,0.,4.8,0.,4.8,0.,4.8
1979-07-02 21:03:50.360 ,3,0,0.,4.8,0.,4.8,0.,4.8,0.,4.8
1979-07-02 21:03:55.160 ,3,0,1.,4.8,0.,4.8,0.,4.8,0.,4.8
1979-07-02 21:03:59.960 ,4,0,1.,4.8,0.,4.8,1.,4.8,0.,4.8
1979-07-02 21:04:04.760 ,4,0,0.,4.8,0.,4.8,0.,4.8,0.,4.8
1979-07-02 21:04:09.560 ,4,0,1.,4.8,0.,4.8,0.,4.8,0.,4.8
1979-07-02 21:04:14.360 ,4,0,0.,4.8,0.,4.8,0.,4.8,0.,4.8
1979-07-02 21:04:19.160 ,4,0,0.,4.8,0.,4.8,0.,4.8,0.,4.8
1979-07-02 21:04:23.960 ,4,0,1.,4.8,0.,4.8,0.,4.8,0.,4.8
1979-07-02 21:04:28.760 ,4,0,1.,4.8,0.,4.8,0.,4.8,0.,4.8
1979-07-02 21:04:33.560 ,4,0,0.,4.8,0.,4.8,0.,4.8,0.,4.8
1979-07-02 21:04:38.360 ,4,0,0.,4.8,1.,4.8,0.,4.8,0.,4.8
1979-07-02 21:04:43.160 ,4,0,0.,4.8,0.,4.8,1.,4.8,0.,4.8
1979-07-02 21:04:47.960 ,5,0,0.,4.8,0.,4.8,1.,4.8,0.,4.8
1979-07-02 21:04:52.760 ,5,0,0.,4.8,0.,4.8,0.,4.8,1.,4.8
1979-07-02 21:04:57.560 ,5,0,0.,4.8,0.,4.8,0.,4.8,0.,4.8
1979-07-02 21:05:02.360 ,5,0,1.,4.8,0.,4.8,0.,4.8,0.,4.8
1979-07-02 21:05:07.160 ,5,0,0.,4.8,0.,4.8,0.,4.8,0.,4.8
1979-07-02 21:05:11.960 ,5,0,0.,4.8,0.,4.8,0.,4.8,0.,4.8
1979-07-02 21:05:16.760 ,5,0,0.,4.8,0.,4.8,0.,4.8,0.,4.8
1979-07-02 21:05:21.560 ,5,0,0.,4.8,0.,4.8,0.,4.8,0.,4.8
1979-07-02 21:05:26.360 ,5,0,0.,4.8,0.,4.8,0.,4.8,0.,4.8
1979-07-02 21:05:31.160 ,5,0,0.,4.8,0.,4.8,0.,4.8,0.,4.8
1979-07-02 21:05:35.960 ,6,0,0.,4.8,0.,4.8,0.,4.8,0.,4.8
1979-07-02 21:05:40.760 ,6,0,2.,4.8,0.,4.8,0.,4.8,0.,4.8
1979-07-02 21:05:45.560 ,6,0,0.,4.8,0.,4.8,0.,4.8,0.,4.8
1979-07-02 21:05:50.360 ,6,0,1.,4.8,0.,4.8,0.,4.8,0.,4.8
1979-07-02 21:05:55.160 ,6,0,0.,4.8,0.,4.8,1.,4.8,0.,4.8
1979-07-02 21:05:59.960 ,6,0,1.,4.8,0.,4.8,0.,4.8,0.,4.8
1979-07-02 21:06:04.760 ,6,0,0.,4.8,0.,4.8,1.,4.8,0.,4.8
1979-07-02 21:06:09.560 ,6,0,0.,4.8,0.,4.8,0.,4.8,0.,4.8
1979-07-02 21:06:14.360 ,6,0,0.,4.8,0.,4.8,0.,4.8,0.,4.8
1979-07-02 21:06:19.160 ,6,0,0.,4.8,0.,4.8,0.,4.8,0.,4.8
1979-07-02 21:06:23.960 ,7,0,0.,4.8,0.,4.8,0.,4.8,0.,4.8
1979-07-02 21:06:28.760 ,7,0,0.,4.8,1.,4.8,0.,4.8,0.,4.8
1979-07-02 21:06:33.560 ,7,0,0.,4.8,1.,4.8,0.,4.8,0.,4.8
1979-07-02 21:06:38.360 ,7,0,0.,4.8,0.,4.8,0.,4.8,0.,4.8
1979-07-02 21:06:43.160 ,7,0,1.,4.8,0.,4.8,0.,4.8,0.,4.8
1979-07-02 21:06:47.960 ,7,0,0.,4.8,0.,4.8,0.,4.8,0.,4.8
1979-07-02 21:06:52.760 ,7,0,0.,4.8,0.,4.8,1.,4.8,0.,4.8
1979-07-02 21:06:57.560 ,7,0,1.,4.8,0.,4.8,0.,4.8,0.,4.8
1979-07-02 21:07:02.360 ,7,0,0.,4.8,0.,4.8,0.,4.8,0.,4.8
1979-07-02 21:07:07.160 ,7,0,0.,4.8,0.,4.8,0.,4.8,0.,4.8
1979-07-02 21:07:11.960 ,3,1,0.,4.8,0.,4.8,0.,4.8,0.,4.8
1979-07-02 21:07:16.760 ,3,1,0.,4.8,0.,4.8,0.,4.8,0.,4.8
1979-07-02 21:07:21.560 ,3,1,1.,4.8,0.,4.8,0.,4.8,0.,4.8
1979-07-02 21:07:26.360 ,3,1,0.,4.8,0.,4.8,1.,4.8,0.,4.8
1979-07-02 21:07:31.160 ,3,1,0.,4.8,0.,4.8,0.,4.8,0.,4.8
1979-07-02 21:07:35.960 ,0,1,0.,4.8,0.,4.8,0.,4.8,1.,4.8
1979-07-02 21:07:40.760 ,0,1,0.,4.8,0.,4.8,0.,4.8,0.,4.8
1979-07-02 21:07:45.560 ,0,1,2.,4.8,0.,4.8,0.,4.8,0.,4.8
1979-07-02 21:07:50.360 ,0,1,1.,4.8,0.,4.8,0.,4.8,0.,4.8
1979-07-02 21:07:55.160 ,0,1,0.,4.8,0.,4.8,0.,4.8,0.,4.8
1979-07-02 21:07:59.960 ,4,1,1.,4.8,0.,4.8,0.,4.8,0.,4.8
1979-07-02 21:08:04.760 ,4,1,0.,4.8,0.,4.8,0.,4.8,0.,4.8
1979-07-02 21:08:09.560 ,4,1,0.,4.8,0.,4.8,0.,4.8,0.,4.8
1979-07-02 21:08:14.360 ,4,1,0.,4.8,0.,4.8,0.,4.8,0.,4.8
1979-07-02 21:08:19.160 ,4,1,0.,4.8,0.,4.8,0.,4.8,0.,4.8
1979-07-02 21:08:23.960 ,7,1,0.,4.8,0.,4.8,0.,4.8,0.,4.8
1979-07-02 21:08:28.760 ,7,1,0.,4.8,0.,4.8,0.,4.8,0.,4.8
1979-07-02 21:08:33.560 ,7,1,0.,4.8,0.,4.8,0.,4.8,0.,4.8
1979-07-02 21:08:38.360 ,7,1,0.,4.8,0.,4.8,0.,4.8,0.,4.8
1979-07-02 21:08:43.160 ,7,1,0.,4.8,0.,4.8,1.,4.8,0.,4.8
1979-07-02 21:08:47.960 ,3,1,1.,4.8,0.,4.8,0.,4.8,0.,4.8
1979-07-02 21:08:52.760 ,3,1,0.,4.8,0.,4.8,0.,4.8,0.,4.8
1979-07-02 21:08:57.560 ,3,1,1.,4.8,0.,4.8,0.,4.8,0.,4.8
1979-07-02 21:09:02.360 ,3,1,1.,4.8,0.,4.8,1.,4.8,0.,4.8
1979-07-02 21:09:07.160 ,3,1,0.,4.8,0.,4.8,0.,4.8,0.,4.8
1979-07-02 21:09:11.960 ,0,1,1.,4.8,0.,4.8,0.,4.8,0.,4.8
1979-07-02 21:09:16.760 ,0,1,2.,4.8,0.,4.8,0.,4.8,0.,4.8
1979-07-02 21:09:21.560 ,0,1,1.,4.8,0.,4.8,0.,4.8,0.,4.8
1979-07-02 21:09:26.360 ,0,1,1.,4.8,0.,4.8,0.,4.8,0.,4.8
1979-07-02 21:09:31.160 ,0,1,0.,4.8,0.,4.8,0.,4.8,0.,4.8
1979-07-02 21:09:35.960 ,4,1,0.,4.8,0.,4.8,0.,4.8,0.,4.8
1979-07-02 21:09:40.760 ,4,1,1.,4.8,0.,4.8,0.,4.8,0.,4.8
1979-07-02 21:09:45.560 ,4,1,0.,4.8,0.,4.8,0.,4.8,1.,4.8
1979-07-02 21:09:50.360 ,4,1,2.,4.8,0.,4.8,0.,4.8,0.,4.8
1979-07-02 21:09:55.160 ,4,1,0.,4.8,0.,4.8,0.,4.8,0.,4.8
1979-07-02 21:09:59.960 ,7,1,1.,4.8,0.,4.8,0.,4.8,0.,4.8
1979-07-02 21:10:04.760 ,7,1,0.,4.8,0.,4.8,0.,4.8,0.,4.8
1979-07-02 21:10:09.560 ,7,1,0.,4.8,0.,4.8,0.,4.8,0.,4.8
1979-07-02 21:10:14.360 ,7,1,1.,4.8,0.,4.8,0.,4.8,0.,4.8
1979-07-02 21:10:19.160 ,7,1,0.,4.8,0.,4.8,0.,4.8,0.,4.8
1979-07-02 21:10:23.960 ,3,1,0.,4.8,0.,4.8,0.,4.8,0.,4.8
1979-07-02 21:10:28.760 ,3,1,0.,4.8,0.,4.8,0.,4.8,0.,4.8
1979-07-02 21:10:33.560 ,3,1,0.,4.8,0.,4.8,0.,4.8,0.,4.8
1979-07-02 21:10:38.360 ,3,1,0.,4.8,0.,4.8,0.,4.8,0.,4.8
1979-07-02 21:10:43.160 ,3,1,0.,4.8,0.,4.8,0.,4.8,0.,4.8
1979-07-02 21:10:47.960 ,0,1,0.,4.8,0.,4.8,0.,4.8,0.,4.8
1979-07-02 21:10:52.760 ,0,1,0.,4.8,0.,4.8,0.,4.8,0.,4.8
1979-07-02 21:10:57.560 ,0,1,1.,4.8,0.,4.8,0.,4.8,0.,4.8
1979-07-02 21:11:02.360 ,0,1,,0,,0,,0,,0
1979-07-02 21:11:07.160 ,0,1,1.,4.8,0.,4.8,0.,4.8,0.,4.8
1979-07-02 21:11:11.960 ,4,1,0.,4.8,0.,4.8,0.,4.8,0.,4.8
1979-07-02 21:11:16.760 ,4,1,0.,4.8,0.,4.8,0.,4.8,0.,4.8
1979-07-02 21:11:21.560 ,4,1,1.,4.8,0.,4.8,0.,4.8,0.,4.8
1979-07-02 21:11:26.360 ,4,1,0.,4.8,0.,4.8,0.,4.8,0.,4.8
1979-07-02 21:11:31.160 ,4,1,0.,4.8,0.,4.8,0.,4.8,0.,4.8
1979-07-02 21:11:35.960 ,7,1,1.,4.8,0.,4.8,0.,4.8,1.,4.8
1979-07-02 21:11:40.760 ,7,1,0.,4.8,0.,4.8,0.,4.8,0.,4.8
1979-07-02 21:11:45.560 ,7,1,0.,4.8,0.,4.8,0.,4.8,0.,4.8
1979-07-02 21:11:50.360 ,7,1,0.,4.8,0.,4.8,0.,4.8,0.,4.8
1979-07-02 21:11:55.160 ,7,1,0.,4.8,0.,4.8,0.,4.8,0.,4.8
1979-07-02 21:11:59.960 ,3,1,0.,4.8,0.,4.8,1.,4.8,0.,4.8
1979-07-02 21:12:04.760 ,3,1,3.,4.8,0.,4.8,0.,4.8,0.,4.8
1979-07-02 21:12:09.560 ,3,1,0.,4.8,0.,4.8,0.,4.8,0.,4.8
1979-07-02 21:12:14.360 ,3,1,0.,4.8,0.,4.8,0.,4.8,0.,4.8
1979-07-02 21:12:19.160 ,3,1,0.,4.8,0.,4.8,0.,4.8,0.,4.8
1979-07-02 21:12:23.960 ,0,1,0.,4.8,0.,4.8,1.,4.8,0.,4.8
1979-07-02 21:12:28.760 ,0,1,0.,4.8,0.,4.8,0.,4.8,0.,4.8
1979-07-02 21:12:33.560 ,0,1,1.,4.8,0.,4.8,0.,4.8,0.,4.8
1979-07-02 21:12:38.360 ,0,1,1.,4.8,0.,4.8,0.,4.8,0.,4.8
1979-07-02 21:12:43.160 ,0,1,0.,4.8,0.,4.8,0.,4.8,0.,4.8
1979-07-02 21:12:47.960 ,4,1,0.,4.8,0.,4.8,0.,4.8,0.,4.8
1979-07-02 21:12:52.760 ,4,1,0.,4.8,0.,4.8,0.,4.8,0.,4.8
1979-07-02 21:12:57.560 ,4,1,0.,4.8,0.,4.8,0.,4.8,0.,4.8
1979-07-02 21:13:02.360 ,4,1,0.,4.8,0.,4.8,0.,4.8,0.,4.8
1979-07-02 21:13:07.160 ,4,1,1.,4.8,0.,4.8,0.,4.8,0.,4.8
1979-07-02 21:13:11.960 ,7,1,2.,4.8,0.,4.8,1.,4.8,0.,4.8
1979-07-02 21:13:16.760 ,7,1,0.,4.8,0.,4.8,1.,4.8,0.,4.8
1979-07-02 21:13:21.560 ,7,1,0.,4.8,0.,4.8,0.,4.8,0.,4.8
1979-07-02 21:13:26.360 ,7,1,1.,4.8,0.,4.8,0.,4.8,0.,4.8
1979-07-02 21:13:31.160 ,7,1,0.,4.8,0.,4.8,0.,4.8,0.,4.8
1979-07-02 21:13:35.960 ,3,1,0.,4.8,0.,4.8,0.,4.8,0.,4.8
1979-07-02 21:13:40.760 ,3,1,1.,4.8,0.,4.8,1.,4.8,0.,4.8
1979-07-02 21:13:45.560 ,3,1,0.,4.8,0.,4.8,0.,4.8,0.,4.8
1979-07-02 21:13:50.360 ,3,1,0.,4.8,0.,4.8,0.,4.8,0.,4.8
1979-07-02 21:13:55.160 ,3,1,1.,4.8,0.,4.8,0.,4.8,0.,4.8
1979-07-02 21:13:59.960 ,0,1,0.,4.8,0.,4.8,1.,4.8,0.,4.8
1979-07-02 21:14:04.760 ,0,1,0.,4.8,0.,4.8,0.,4.8,0.,4.8
1979-07-02 21:14:09.560 ,0,1,0.,4.8,0.,4.8,0.,4.8,0.,4.8
1979-07-02 21:14:14.360 ,0,1,1.,4.8,0.,4.8,0.,4.8,0.,4.8
1979-07-02 21:14:19.160 ,0,1,0.,4.8,0.,4.8,0.,4.8,0.,4.8
1979-07-02 21:14:23.960 ,4,1,0.,4.8,0.,4.8,0.,4.8,0.,4.8
1979-07-02 21:14:28.760 ,4,1,1.,4.8,0.,4.8,0.,4.8,0.,4.8
1979-07-02 21:14:33.560 ,4,1,0.,4.8,0.,4.8,0.,4.8,0.,4.8
1979-07-02 21:14:38.360 ,4,1,0.,4.8,0.,4.8,0.,4.8,0.,4.8
1979-07-02 21:14:43.160 ,4,1,1.,4.8,1.,4.8,0.,4.8,0.,4.8
1979-07-02 21:14:47.960 ,7,1,0.,4.8,0.,4.8,2.,4.8,0.,4.8
1979-07-02 21:14:52.760 ,7,1,0.,4.8,0.,4.8,0.,4.8,0.,4.8
1979-07-02 21:14:57.560 ,7,1,1.,4.8,0.,4.8,0.,4.8,0.,4.8
1979-07-02 21:15:02.360 ,7,1,0.,4.8,0.,4.8,0.,4.8,0.,4.8
1979-07-02 21:15:07.160 ,7,1,0.,4.8,0.,4.8,0.,4.8,0.,4.8
1979-07-02 21:15:11.960 ,3,1,0.,4.8,0.,4.8,0.,4.8,0.,4.8
1979-07-02 21:15:16.760 ,3,1,0.,4.8,0.,4.8,0.,4.8,0.,4.8
1979-07-02 21:15:21.560 ,3,1,1.,4.8,0.,4.8,0.,4.8,0.,4.8
1979-07-02 21:15:26.360 ,3,1,1.,4.8,0.,4.8,0.,4.8,0.,4.8
1979-07-02 21:15:31.160 ,3,1,1.,4.8,0.,4.8,1.,4.8,0.,4.8
1979-07-02 21:15:35.960 ,0,1,0.,4.8,0.,4.8,0.,4.8,0.,4.8
1979-07-02 21:15:40.760 ,0,1,2.,4.8,0.,4.8,1.,4.8,0.,4.8
1979-07-02 21:15:45.560 ,0,1,1.,4.8,0.,4.8,1.,4.8,0.,4.8
1979-07-02 21:15:50.360 ,0,1,0.,4.8,0.,4.8,0.,4.8,0.,4.8
1979-07-02 21:15:55.160 ,0,1,0.,4.8,0.,4.8,0.,4.8,0.,4.8
1979-07-02 21:15:59.960 ,4,1,0.,4.8,0.,4.8,0.,4.8,0.,4.8
1979-07-02 21:16:04.760 ,4,1,1.,4.8,0.,4.8,0.,4.8,0.,4.8
1979-07-02 21:16:09.560 ,4,1,0.,4.8,0.,4.8,0.,4.8,0.,4.8
1979-07-02 21:16:14.360 ,4,1,1.,4.8,0.,4.8,0.,4.8,0.,4.8
1979-07-02 21:16:19.160 ,4,1,0.,4.8,0.,4.8,0.,4.8,0.,4.8
1979-07-02 21:16:23.960 ,7,1,0.,4.8,0.,4.8,0.,4.8,0.,4.8
1979-07-02 21:16:28.760 ,7,1,0.,4.8,0.,4.8,0.,4.8,0.,4.8
1979-07-02 21:16:33.560 ,7,1,0.,4.8,0.,4.8,0.,4.8,0.,4.8
1979-07-02 21:16:38.360 ,7,1,0.,4.8,1.,4.8,0.,4.8,0.,4.8
1979-07-02 21:16:43.160 ,7,1,0.,4.8,0.,4.8,0.,4.8,0.,4.8
1979-07-02 21:16:47.960 ,3,1,0.,4.8,0.,4.8,0.,4.8,0.,4.8
1979-07-02 21:16:52.760 ,3,1,1.,4.8,0.,4.8,1.,4.8,0.,4.8
1979-07-02 21:16:57.560 ,3,1,0.,4.8,0.,4.8,0.,4.8,0.,4.8
1979-07-02 21:17:02.360 ,3,1,0.,4.8,0.,4.8,1.,4.8,0.,4.8
1979-07-02 21:17:07.160 ,3,1,0.,4.8,0.,4.8,0.,4.8,0.,4.8
1979-07-02 21:17:11.960 ,0,1,1.,4.8,0.,4.8,0.,4.8,0.,4.8
1979-07-02 21:17:16.760 ,0,1,0.,4.8,0.,4.8,0.,4.8,0.,4.8
1979-07-02 21:17:21.560 ,0,1,0.,4.8,0.,4.8,0.,4.8,0.,4.8
1979-07-02 21:17:26.360 ,0,1,0.,4.8,0.,4.8,1.,4.8,0.,4.8
1979-07-02 21:17:31.160 ,0,1,1.,4.8,0.,4.8,0.,4.8,0.,4.8
1979-07-02 21:17:35.960 ,0,0,0.,4.8,0.,4.8,1.,4.8,0.,4.8
1979-07-02 21:17:40.760 ,0,0,0.,4.8,0.,4.8,0.,4.8,0.,4.8
1979-07-02 21:17:45.560 ,0,0,0.,4.8,0.,4.8,0.,4.8,0.,4.8
1979-07-02 21:17:50.360 ,0,0,0.,4.8,0.,4.8,0.,4.8,0.,4.8
1979-07-02 21:17:55.160 ,0,0,0.,4.8,0.,4.8,0.,4.8,0.,4.8
1979-07-02 21:17:59.960 ,0,0,1.,4.8,0.,4.8,0.,4.8,0.,4.8
1979-07-02 21:18:04.760 ,0,0,0.,4.8,0.,4.8,0.,4.8,0.,4.8
1979-07-02 21:18:09.560 ,0,0,0.,4.8,1.,4.8,0.,4.8,0.,4.8
1979-07-02 21:18:14.360 ,0,0,0.,4.8,0.,4.8,0.,4.8,0.,4.8
1979-07-02 21:18:19.160 ,0,0,1.,4.8,0.,4.8,0.,4.8,0.,4.8
1979-07-02 21:18:23.960 ,5,0,0.,4.8,0.,4.8,0.,4.8,0.,4.8
1979-07-02 21:18:28.760 ,5,0,0.,4.8,0.,4.8,0.,4.8,0.,4.8
1979-07-02 21:18:33.560 ,5,0,0.,4.8,0.,4.8,0.,4.8,0.,4.8
1979-07-02 21:18:38.360 ,5,0,0.,4.8,0.,4.8,0.,4.8,0.,4.8
1979-07-02 21:18:43.160 ,5,0,0.,4.8,0.,4.8,1.,4.8,0.,4.8
1979-07-02 21:18:47.960 ,5,0,0.,4.8,0.,4.8,0.,4.8,0.,4.8
1979-07-02 21:18:52.760 ,5,0,0.,4.8,0.,4.8,0.,4.8,0.,4.8
1979-07-02 21:18:57.560 ,5,0,0.,4.8,0.,4.8,0.,4.8,0.,4.8
1979-07-02 21:19:02.360 ,5,0,1.,4.8,0.,4.8,0.,4.8,0.,4.8
1979-07-02 21:19:07.160 ,5,0,0.,4.8,0.,4.8,0.,4.8,0.,4.8
1979-07-02 21:19:11.960 ,4,0,0.,4.8,0.,4.8,0.,4.8,0.,4.8
1979-07-02 21:19:16.760 ,4,0,2.,4.8,1.,4.8,0.,4.8,0.,4.8
1979-07-02 21:19:21.560 ,4,0,0.,4.8,0.,4.8,0.,4.8,0.,4.8
1979-07-02 21:19:26.360 ,4,0,1.,4.8,0.,4.8,1.,4.8,0.,4.8
1979-07-02 21:19:31.160 ,4,0,0.,4.8,1.,4.8,0.,4.8,0.,4.8
1979-07-02 21:19:35.960 ,4,0,0.,4.8,0.,4.8,1.,4.8,0.,4.8
1979-07-02 21:19:40.760 ,4,0,1.,4.8,0.,4.8,0.,4.8,0.,4.8
1979-07-02 21:19:45.560 ,4,0,0.,4.8,0.,4.8,0.,4.8,0.,4.8
1979-07-02 21:19:50.360 ,4,0,2.,4.8,0.,4.8,0.,4.8,0.,4.8
1979-07-02 21:19:55.160 ,4,0,0.,4.8,0.,4.8,1.,4.8,0.,4.8
1979-07-02 21:19:59.960 ,3,0,0.,4.8,0.,4.8,0.,4.8,0.,4.8
1979-07-02 21:20:04.760 ,3,0,1.,4.8,0.,4.8,0.,4.8,0.,4.8
1979-07-02 21:20:09.560 ,3,0,0.,4.8,0.,4.8,0.,4.8,0.,4.8
1979-07-02 21:20:14.360 ,3,0,1.,4.8,0.,4.8,0.,4.8,0.,4.8
1979-07-02 21:20:19.160 ,3,0,2.,4.8,0.,4.8,0.,4.8,0.,4.8
1979-07-02 21:20:23.960 ,3,0,0.,4.8,0.,4.8,0.,4.8,0.,4.8
1979-07-02 21:20:28.760 ,3,0,1.,4.8,0.,4.8,0.,4.8,0.,4.8
1979-07-02 21:20:33.560 ,3,0,0.,4.8,0.,4.8,0.,4.8,0.,4.8
1979-07-02 21:20:38.360 ,3,0,0.,4.8,0.,4.8,0.,4.8,0.,4.8
1979-07-02 21:20:43.160 ,3,0,0.,4.8,1.,4.8,0.,4.8,0.,4.8
1979-07-02 21:20:47.960 ,2,0,2.,4.8,0.,4.8,0.,4.8,0.,4.8
1979-07-02 21:20:52.760 ,2,0,0.,4.8,0.,4.8,0.,4.8,0.,4.8
1979-07-02 21:20:57.560 ,2,0,0.,4.8,0.,4.8,0.,4.8,0.,4.8
1979-07-02 21:21:02.360 ,2,0,0.,4.8,0.,4.8,0.,4.8,0.,4.8
1979-07-02 21:21:07.160 ,2,0,1.,4.8,0.,4.8,0.,4.8,0.,4.8
1979-07-02 21:21:11.960 ,2,0,0.,4.8,1.,4.8,0.,4.8,0.,4.8
1979-07-02 21:21:16.760 ,2,0,1.,4.8,0.,4.8,0.,4.8,0.,4.8
1979-07-02 21:21:21.560 ,2,0,0.,4.8,0.,4.8,0.,4.8,0.,4.8
1979-07-02 21:21:26.360 ,2,0,0.,4.8,0.,4.8,0.,4.8,0.,4.8
1979-07-02 21:21:31.160 ,2,0,0.,4.8,0.,4.8,0.,4.8,0.,4.8
1979-07-02 21:21:35.960 ,1,0,0.,4.8,0.,4.8,1.,4.8,0.,4.8
1979-07-02 21:21:40.760 ,1,0,0.,4.8,0.,4.8,0.,4.8,0.,4.8
1979-07-02 21:21:45.560 ,1,0,1.,4.8,0.,4.8,0.,4.8,0.,4.8
1979-07-02 21:21:50.360 ,1,0,0.,4.8,0.,4.8,0.,4.8,0.,4.8
1979-07-02 21:21:55.160 ,1,0,0.,4.8,0.,4.8,0.,4.8,0.,4.8
1979-07-02 21:21:59.960 ,1,0,0.,4.8,0.,4.8,0.,4.8,0.,4.8
1979-07-02 21:22:04.760 ,1,0,0.,4.8,0.,4.8,0.,4.8,0.,4.8
1979-07-02 21:22:09.560 ,1,0,0.,4.8,0.,4.8,0.,4.8,0.,4.8
1979-07-02 21:22:14.360 ,1,0,0.,4.8,0.,4.8,0.,4.8,0.,4.8
1979-07-02 21:22:19.160 ,1,0,1.,4.8,0.,4.8,0.,4.8,0.,4.8
1979-07-02 21:22:23.960 ,0,0,0.,4.8,0.,4.8,0.,4.8,0.,4.8
1979-07-02 21:22:28.760 ,0,0,0.,4.8,0.,4.8,0.,4.8,0.,4.8
1979-07-02 21:22:33.560 ,0,0,0.,4.8,0.,4.8,0.,4.8,0.,4.8
1979-07-02 21:22:38.360 ,0,0,0.,4.8,0.,4.8,0.,4.8,0.,4.8
1979-07-02 21:22:43.160 ,0,0,0.,4.8,0.,4.8,0.,4.8,0.,4.8
1979-07-02 21:22:47.960 ,0,0,0.,4.8,0.,4.8,0.,4.8,0.,4.8
1979-07-02 21:22:52.760 ,0,0,0.,4.8,0.,4.8,0.,4.8,0.,4.8
1979-07-02 21:22:57.560 ,0,0,0.,4.8,0.,4.8,0.,4.8,0.,4.8
1979-07-02 21:23:02.360 ,0,0,0.,4.8,0.,4.8,1.,4.8,0.,4.8
1979-07-02 21:23:07.160 ,0,0,1.,4.8,1.,4.8,0.,4.8,0.,4.8
1979-07-02 21:23:11.960 ,0,0,0.,4.8,0.,4.8,2.,4.8,0.,4.8
1979-07-02 21:23:16.760 ,0,0,1.,4.8,0.,4.8,1.,4.8,0.,4.8
1979-07-02 21:23:21.560 ,0,0,1.,4.8,0.,4.8,0.,4.8,0.,4.8
1979-07-02 21:23:26.360 ,0,0,0.,4.8,0.,4.8,0.,4.8,0.,4.8
1979-07-02 21:23:31.160 ,0,0,0.,4.8,0.,4.8,0.,4.8,0.,4.8
1979-07-02 21:23:35.960 ,0,0,2.,4.8,0.,4.8,2.,4.8,0.,4.8
1979-07-02 21:23:40.760 ,0,0,0.,4.8,0.,4.8,0.,4.8,0.,4.8
1979-07-02 21:23:45.560 ,0,0,0.,4.8,0.,4.8,0.,4.8,0.,4.8
1979-07-02 21:23:50.360 ,0,0,0.,4.8,0.,4.8,0.,4.8,0.,4.8
1979-07-02 21:23:55.160 ,0,0,0.,4.8,0.,4.8,0.,4.8,0.,4.8
1979-07-02 21:23:59.960 ,1,0,0.,4.8,0.,4.8,0.,4.8,0.,4.8
1979-07-02 21:24:04.760 ,1,0,0.,4.8,0.,4.8,0.,4.8,0.,4.8
1979-07-02 21:24:09.560 ,1,0,0.,4.8,0.,4.8,0.,4.8,0.,4.8
1979-07-02 21:24:14.360 ,1,0,0.,4.8,0.,4.8,0.,4.8,0.,4.8
1979-07-02 21:24:19.160 ,1,0,0.,4.8,0.,4.8,1.,4.8,0.,4.8
1979-07-02 21:24:23.960 ,1,0,0.,4.8,0.,4.8,0.,4.8,0.,4.8
1979-07-02 21:24:28.760 ,1,0,0.,4.8,0.,4.8,0.,4.8,0.,4.8
1979-07-02 21:24:33.560 ,1,0,0.,4.8,0.,4.8,0.,4.8,0.,4.8
1979-07-02 21:24:38.360 ,1,0,0.,4.8,0.,4.8,1.,4.8,0.,4.8
1979-07-02 21:24:43.160 ,1,0,0.,4.8,0.,4.8,0.,4.8,0.,4.8
1979-07-02 21:24:47.960 ,2,0,0.,4.8,0.,4.8,0.,4.8,0.,4.8
1979-07-02 21:24:52.760 ,2,0,2.,4.8,0.,4.8,0.,4.8,0.,4.8
1979-07-02 21:24:57.560 ,2,0,2.,4.8,0.,4.8,0.,4.8,0.,4.8
1979-07-02 21:25:02.360 ,2,0,0.,4.8,0.,4.8,0.,4.8,0.,4.8
1979-07-02 21:25:07.160 ,2,0,0.,4.8,0.,4.8,0.,4.8,0.,4.8
1979-07-02 21:25:11.960 ,2,0,0.,4.8,0.,4.8,0.,4.8,0.,4.8
1979-07-02 21:25:16.760 ,2,0,1.,4.8,0.,4.8,1.,4.8,0.,4.8
1979-07-02 21:25:21.560 ,2,0,0.,4.8,1.,4.8,0.,4.8,0.,4.8
1979-07-02 21:25:26.360 ,2,0,1.,4.8,0.,4.8,0.,4.8,0.,4.8
1979-07-02 21:25:31.160 ,2,0,0.,4.8,0.,4.8,0.,4.8,0.,4.8
1979-07-02 21:25:35.960 ,3,0,2.,4.8,0.,4.8,0.,4.8,0.,4.8
1979-07-02 21:25:40.760 ,3,0,1.,4.8,0.,4.8,0.,4.8,0.,4.8
1979-07-02 21:25:45.560 ,3,0,0.,4.8,0.,4.8,0.,4.8,0.,4.8
1979-07-02 21:25:50.360 ,3,0,1.,4.8,0.,4.8,0.,4.8,0.,4.8
1979-07-02 21:25:55.160 ,3,0,0.,4.8,0.,4.8,0.,4.8,0.,4.8
1979-07-02 21:25:59.960 ,3,0,,0,,0,,0,,0
1979-07-02 21:26:04.760 ,3,0,0.,4.8,0.,4.8,0.,4.8,0.,4.8
1979-07-02 21:26:09.560 ,3,0,0.,4.8,0.,4.8,0.,4.8,0.,4.8
1979-07-02 21:26:14.360 ,3,0,0.,4.8,0.,4.8,0.,4.8,0.,4.8
1979-07-02 21:26:19.160 ,3,0,1.,4.8,0.,4.8,0.,4.8,0.,4.8
1979-07-02 21:26:23.960 ,4,0,1.,4.8,0.,4.8,0.,4.8,0.,4.8
1979-07-02 21:26:28.760 ,4,0,0.,4.8,0.,4.8,0.,4.8,0.,4.8
1979-07-02 21:26:33.560 ,4,0,0.,4.8,0.,4.8,0.,4.8,0.,4.8
1979-07-02 21:26:38.360 ,4,0,1.,4.8,0.,4.8,0.,4.8,0.,4.8
1979-07-02 21:26:43.160 ,4,0,1.,4.8,1.,4.8,0.,4.8,0.,4.8
1979-07-02 21:26:47.960 ,4,0,0.,4.8,0.,4.8,0.,4.8,0.,4.8
1979-07-02 21:26:52.760 ,4,0,0.,4.8,0.,4.8,0.,4.8,0.,4.8
1979-07-02 21:26:57.560 ,4,0,0.,4.8,0.,4.8,0.,4.8,0.,4.8
1979-07-02 21:27:02.360 ,4,0,1.,4.8,0.,4.8,0.,4.8,0.,4.8
1979-07-02 21:27:07.160 ,4,0,1.,4.8,0.,4.8,0.,4.8,0.,4.8
1979-07-02 21:27:11.960 ,5,0,0.,4.8,0.,4.8,0.,4.8,0.,4.8
1979-07-02 21:27:16.760 ,5,0,1.,4.8,0.,4.8,0.,4.8,0.,4.8
1979-07-02 21:27:21.560 ,5,0,1.,4.8,0.,4.8,0.,4.8,0.,4.8
1979-07-02 21:27:26.360 ,5,0,1.,4.8,0.,4.8,0.,4.8,0.,4.8
1979-07-02 21:27:31.160 ,5,0,0.,4.8,0.,4.8,0.,4.8,0.,4.8
1979-07-02 21:27:35.960 ,5,0,1.,4.8,0.,4.8,0.,4.8,0.,4.8
1979-07-02 21:27:40.760 ,5,0,0.,4.8,0.,4.8,0.,4.8,0.,4.8
1979-07-02 21:27:45.560 ,5,0,0.,4.8,0.,4.8,0.,4.8,0.,4.8
1979-07-02 21:27:50.360 ,5,0,2.,4.8,1.,4.8,0.,4.8,0.,4.8
1979-07-02 21:27:55.160 ,5,0,1.,4.8,0.,4.8,0.,4.8,0.,4.8
1979-07-02 21:27:59.960 ,6,0,0.,4.8,0.,4.8,0.,4.8,0.,4.8
1979-07-02 21:28:04.760 ,6,0,0.,4.8,0.,4.8,0.,4.8,0.,4.8
1979-07-02 21:28:09.560 ,6,0,2.,4.8,0.,4.8,0.,4.8,0.,4.8
1979-07-02 21:28:14.360 ,6,0,0.,4.8,0.,4.8,0.,4.8,0.,4.8
1979-07-02 21:28:19.160 ,6,0,2.,4.8,0.,4.8,0.,4.8,0.,4.8
1979-07-02 21:28:23.960 ,6,0,1.,4.8,0.,4.8,0.,4.8,0.,4.8
1979-07-02 21:28:28.760 ,6,0,0.,4.8,0.,4.8,0.,4.8,0.,4.8
1979-07-02 21:28:33.560 ,6,0,1.,4.8,0.,4.8,0.,4.8,0.,4.8
1979-07-02 21:28:38.360 ,6,0,0.,4.8,0.,4.8,0.,4.8,0.,4.8
1979-07-02 21:28:43.160 ,6,0,1.,4.8,0.,4.8,0.,4.8,0.,4.8
1979-07-02 21:28:47.960 ,7,0,1.,4.8,0.,4.8,0.,4.8,0.,4.8
1979-07-02 21:28:52.760 ,7,0,1.,4.8,0.,4.8,0.,4.8,0.,4.8
1979-07-02 21:28:57.560 ,7,0,0.,4.8,0.,4.8,0.,4.8,0.,4.8
1979-07-02 21:29:02.360 ,7,0,0.,4.8,0.,4.8,0.,4.8,0.,4.8
1979-07-02 21:29:07.160 ,7,0,0.,4.8,0.,4.8,0.,4.8,0.,4.8
1979-07-02 21:29:11.960 ,7,0,0.,4.8,0.,4.8,0.,4.8,0.,4.8
1979-07-02 21:29:16.760 ,7,0,0.,4.8,1.,4.8,0.,4.8,0.,4.8
1979-07-02 21:29:21.560 ,7,0,0.,4.8,0.,4.8,0.,4.8,0.,4.8
1979-07-02 21:29:26.360 ,7,0,1.,4.8,0.,4.8,0.,4.8,0.,4.8
1979-07-02 21:29:31.160 ,7,0,0.,4.8,0.,4.8,0.,4.8,0.,4.8
1979-07-02 21:29:35.960 ,7,0,0.,4.8,0.,4.8,0.,4.8,0.,4.8
1979-07-02 21:29:40.760 ,7,0,1.,4.8,0.,4.8,0.,4.8,0.,4.8
1979-07-02 21:29:45.560 ,7,0,0.,4.8,0.,4.8,0.,4.8,0.,4.8
1979-07-02 21:29:50.360 ,7,0,0.,4.8,0.,4.8,0.,4.8,0.,4.8
1979-07-02 21:29:55.160 ,7,0,0.,4.8,0.,4.8,0.,4.8,0.,4.8
1979-07-02 21:29:59.960 ,7,0,1.,4.8,0.,4.8,0.,4.8,0.,4.8
1979-07-02 21:30:04.760 ,7,0,0.,4.8,0.,4.8,0.,4.8,0.,4.8
1979-07-02 21:30:09.560 ,7,0,0.,4.8,1.,4.8,0.,4.8,0.,4.8
1979-07-02 21:30:14.360 ,7,0,0.,4.8,0.,4.8,0.,4.8,0.,4.8
1979-07-02 21:30:19.160 ,7,0,0.,4.8,0.,4.8,0.,4.8,0.,4.8
1979-07-02 21:30:23.960 ,6,0,1.,4.8,0.,4.8,0.,4.8,0.,4.8
1979-07-02 21:30:28.760 ,6,0,0.,4.8,0.,4.8,0.,4.8,0.,4.8
1979-07-02 21:30:33.560 ,6,0,1.,4.8,0.,4.8,1.,4.8,0.,4.8
1979-07-02 21:30:38.360 ,6,0,0.,4.8,0.,4.8,0.,4.8,0.,4.8
1979-07-02 21:30:43.160 ,6,0,0.,4.8,0.,4.8,0.,4.8,0.,4.8
1979-07-02 21:30:47.960 ,6,0,1.,4.8,0.,4.8,0.,4.8,0.,4.8
1979-07-02 21:30:52.760 ,6,0,0.,4.8,0.,4.8,0.,4.8,0.,4.8
1979-07-02 21:30:57.560 ,6,0,0.,4.8,0.,4.8,0.,4.8,0.,4.8
1979-07-02 21:31:02.360 ,6,0,0.,4.8,0.,4.8,0.,4.8,1.,4.8
1979-07-02 21:31:07.160 ,6,0,0.,4.8,1.,4.8,0.,4.8,0.,4.8
1979-07-02 21:31:11.960 ,5,0,0.,4.8,0.,4.8,0.,4.8,0.,4.8
1979-07-02 21:31:16.760 ,5,0,1.,4.8,0.,4.8,0.,4.8,0.,4.8
1979-07-02 21:31:21.560 ,5,0,0.,4.8,0.,4.8,0.,4.8,0.,4.8
1979-07-02 21:31:26.360 ,5,0,0.,4.8,0.,4.8,0.,4.8,0.,4.8
1979-07-02 21:31:31.160 ,5,0,0.,4.8,0.,4.8,0.,4.8,0.,4.8
1979-07-02 21:31:35.960 ,5,0,0.,4.8,0.,4.8,0.,4.8,0.,4.8
1979-07-02 21:31:40.760 ,5,0,1.,4.8,0.,4.8,0.,4.8,0.,4.8
1979-07-02 21:31:45.560 ,5,0,0.,4.8,0.,4.8,0.,4.8,0.,4.8
1979-07-02 21:31:50.360 ,5,0,1.,4.8,0.,4.8,0.,4.8,0.,4.8
1979-07-02 21:31:55.160 ,5,0,0.,4.8,0.,4.8,0.,4.8,0.,4.8
1979-07-02 21:31:59.960 ,4,0,0.,4.8,0.,4.8,0.,4.8,0.,4.8
1979-07-02 21:32:04.760 ,4,0,0.,4.8,0.,4.8,0.,4.8,0.,4.8
1979-07-02 21:32:09.560 ,4,0,0.,4.8,0.,4.8,0.,4.8,0.,4.8
1979-07-02 21:32:14.360 ,4,0,1.,4.8,0.,4.8,0.,4.8,0.,4.8
1979-07-02 21:32:19.160 ,4,0,1.,4.8,0.,4.8,0.,4.8,0.,4.8
1979-07-02 21:32:23.960 ,4,0,0.,4.8,0.,4.8,0.,4.8,0.,4.8
1979-07-02 21:32:28.760 ,4,0,0.,4.8,0.,4.8,0.,4.8,0.,4.8
1979-07-02 21:32:33.560 ,4,0,1.,4.8,0.,4.8,0.,4.8,0.,4.8
1979-07-02 21:32:38.360 ,4,0,0.,4.8,0.,4.8,0.,4.8,0.,4.8
1979-07-02 21:32:43.160 ,4,0,0.,4.8,0.,4.8,0.,4.8,0.,4.8
1979-07-02 21:32:47.960 ,3,0,1.,4.8,0.,4.8,0.,4.8,0.,4.8
1979-07-02 21:32:52.760 ,3,0,0.,4.8,0.,4.8,0.,4.8,0.,4.8
1979-07-02 21:32:57.560 ,3,0,0.,4.8,0.,4.8,0.,4.8,0.,4.8
1979-07-02 21:33:02.360 ,3,0,2.,4.8,0.,4.8,0.,4.8,0.,4.8
1979-07-02 21:33:07.160 ,3,0,0.,4.8,0.,4.8,0.,4.8,0.,4.8
1979-07-02 21:33:11.960 ,3,0,0.,4.8,0.,4.8,0.,4.8,0.,4.8
1979-07-02 21:33:16.760 ,3,0,0.,4.8,0.,4.8,1.,4.8,0.,4.8
1979-07-02 21:33:21.560 ,3,0,0.,4.8,0.,4.8,0.,4.8,0.,4.8